Location: Hilton Head Island
(32.2163°N, 80.7526°W)
Time: 16:14:03
(UTC-05:00)

Explorer 11/Cluster Stage 4 - Pass Details

Date: 16 February 2026
Orbit: 463 x 1176 km, 28.8° (Epoch: 6 March)

Event Time Altitude Azimuth Distance (km) Brightness Sun altitude
Rises 15:41:59 0° 260° (W) 2,520 10.1 27.4°
Reaches altitude 10° 15:44:13 10° 255° (WSW) 1,610 9.6 27.0°
Maximum altitude 15:47:43 49° 179° (S) 599 6.8 26.4°
Drops below altitude 10° 15:51:16 10° 103° (ESE) 1,635 8.0 25.8°
Sets 15:53:33 0° 98° (E) 2,564 8.8 25.4°
